This demonstration page uses our WeatherBlox Daily Observations layout. Learn more.

Left ArrowRight Arrow

Hourly Observations for October 30, 2018

Temp ( °F °C ) Dew Point ( °F °C ) Humidity (%) Winds ( mph kmh ) Pressure ( in mb ) Visibility ( mi km ) Precip ( " mm )
12:57 am 00:57 Clear 52 11.1 42 5.6 69 69 N 22 35 29.80 1009 10 16 0.00 0.00
1:57 am 01:57 Clear 49 9.4 40 4.4 71 71 N 13 20 29.83 1010 10 16 0.00 0.00
2:57 am 02:57 Clear 47 8.3 38 3.3 71 71 N 16 26 29.83 1010 10 16 0.00 0.00
3:57 am 03:57 Clear 46 7.8 39 3.9 77 77 N 16 26 29.85 1011 10 16 0.00 0.00
4:57 am 04:57 Clear 46 7.8 40 4.4 79 79 N 14 22 29.87 1012 10 16 0.00 0.00
5:57 am 05:57 Clear 46 7.8 40 4.4 79 79 N 15 24 29.89 1012 10 16 0.00 0.00
6:57 am 06:57 Clear 45 7.2 40 4.4 83 83 N 15 24 29.91 1013 10 16 0.00 0.00
7:57 am 07:57 Clear 44 6.7 39 3.9 83 83 NNW 16 26 29.93 1014 10 16 0.00 0.00
8:57 am 08:57 Sunny 45 7.2 40 4.4 83 83 N 18 30 29.95 1014 10 16 0.00 0.00
9:57 am 09:57 Sunny 46 7.8 40 4.4 79 79 N 16 26 29.99 1016 10 16 0.00 0.00
10:57 am 10:57 Sunny 48 8.9 40 4.4 74 74 N 21 33 29.99 1016 10 16 0.00 0.00
11:57 am 11:57 Sunny 50 10 41 5 71 71 N 17 28 30.01 1016 10 16 0.00 0.00
12:57 pm 12:57 Sunny 51 10.6 40 4.4 66 66 N 18 30 30.00 1016 10 16 0.00 0.00
1:57 pm 13:57 Sunny 53 11.7 40 4.4 61 61 N 21 33 29.97 1015 10 16 0.00 0.00
2:57 pm 14:57 Sunny 54 12.2 36 2.2 51 51 N 22 35 29.97 1015 10 16 0.00 0.00
3:57 pm 15:57 Mostly Sunny 56 13.3 34 1.1 44 44 NNE 18 30 29.97 1015 10 16 0.00 0.00
4:57 pm 16:57 Mostly Cloudy 54 12.2 34 1.1 47 47 NNE 18 30 29.98 1015 10 16 0.00 0.00
5:57 pm 17:57 Sunny 54 12.2 34 1.1 47 47 N 13 20 30.00 1016 10 16 0.00 0.00
6:57 pm 18:57 Clear 50 10 34 1.1 54 54 N 9 15 30.02 1017 10 16 0.00 0.00
7:57 pm 19:57 Partly Cloudy 50 10 34 1.1 54 54 N 6 9 30.04 1017 10 16 0.00 0.00
8:57 pm 20:57 Mostly Cloudy 48 8.9 35 1.7 61 61 NW 5 7 30.05 1018 10 16 0.00 0.00
10:57 pm 22:57 Clear 44 6.7 34 1.1 68 68 NW 7 11 30.08 1019 10 16 0.00 0.00
11:57 pm 23:57 Partly Cloudy 43 6.1 34 1.1 71 71 NW 7 11 30.08 1019 10 16 0.00 0.00

Powered by AerisWeather